Content
SEND FEEDBACK

Daily
Averages
Monthly
Summary
United States of America

ELK POINT, SOUTH DAKOTA


Home > North America > United States > South Dakota
Elevation: 1150 feet     Latitude: 42 51N     Longitude: 096 35W

WEATHER
 
SELECT A DAY
Number of Records: 413,679;   Date Range: 4/23/95 - 9/20/14
 
SHARE

PRINT THIS DATA

[ ← Previous Day ]
WEATHER ALMANAC - FEBRUARY 13, 2013
[ Next Day → ]
[ °C ]   °F
Weather ElementAverageHighLow
Temperature34.4 °F48.2 °F (1:55 pm)21.2 °F (2:15 am)
Dewpoint26.7 °F32 °F (3:55 pm)19.4 °F (2:55 am)
Humidity75.2 %100 % (2:15 am)46 % (2:15 pm)
Barometer29.75 in29.87 in (12:35 am)29.66 in (3:15 pm)
Wind Speed5.2 mph12.7 mph (2:35 pm)
Wind Gust18.4 mph (2:15 pm)
Weather ElementAverage
Visibility10 mi
Wind DirectionS (176.8 °)

Weather ElementTotal
Precipitation---
Heating Degree Days30.3 (Base 65)
Averaged from 71 records on February 13, 2013
WEATHER CONDITIONS BREAKOUT
WIND DIRECTION BREAKOUT
WEATHER BY HOUR - FEBRUARY 13, 2013
[ °C ]   °F
Local TimeTemperatureDewpointHumidityBarometerVisibilityWind DirectionWind SpeedGust SpeedPrecipitationEventsConditions
12:35 AM26.6 °F21.2 °F80 %29.87 in10.0 miCalmClear
12:55 AM24.8 °F21.2 °F86 %29.87 in10.0 miCalmClear
1:15 AM26.6 °F21.2 °F80 %29.87 in10.0 miCalmClear
1:35 AM23.0 °F21.2 °F93 %29.85 in10.0 miCalmClear
1:55 AM23.0 °F21.2 °F93 %29.85 in10.0 miCalmClear
2:15 AM21.2 °F21.2 °F100 %29.85 in10.0 miCalmClear
2:35 AM21.2 °F21.2 °F100 %29.84 in10.0 miCalmClear
2:55 AM21.2 °F19.4 °F93 %29.84 in10.0 miCalmScattered Clouds
3:15 AM24.8 °F21.2 °F86 %29.84 in10.0 miCalmOvercast
3:35 AM23.0 °F21.2 °F93 %29.83 in10.0 miCalmScattered Clouds
3:55 AM24.8 °F21.2 °F86 %29.82 in10.0 miCalmMostly Cloudy
4:15 AM21.2 °F19.4 °F93 %29.82 in10.0 miCalmMostly Cloudy
4:35 AM23.0 °F21.2 °F93 %29.83 in10.0 miSSW (210°)4.6 mphOvercast
4:55 AM24.8 °F21.2 °F86 %29.82 in10.0 miCalmMostly Cloudy
5:15 AM23.0 °F21.2 °F93 %29.82 in10.0 miCalmClear
5:35 AM24.8 °F21.2 °F86 %29.81 in10.0 miCalmClear
5:55 AM23.0 °F21.2 °F93 %29.81 in10.0 miCalmClear
6:15 AM23.0 °F21.2 °F93 %29.81 in10.0 miCalmScattered Clouds
6:35 AM23.0 °F21.2 °F93 %29.81 in10.0 miCalmScattered Clouds
6:55 AM24.8 °F21.2 °F86 %29.80 in10.0 miCalmScattered Clouds
7:15 AM24.8 °F21.2 °F86 %29.80 in10.0 miCalmScattered Clouds
7:35 AM24.8 °F23.0 °F93 %29.80 in10.0 miCalmClear
7:55 AM24.8 °F21.2 °F86 %29.80 in10.0 miSSW (200°)3.5 mphClear
8:15 AM24.8 °F21.2 °F86 %29.80 in10.0 miSSW (210°)3.5 mphClear
8:35 AM26.6 °F24.8 °F93 %29.80 in10.0 miCalmClear
8:55 AM28.4 °F24.8 °F86 %29.80 in10.0 miSSW (200°)4.6 mphClear
9:15 AM30.2 °F26.6 °F86 %29.79 in10.0 miSSW (210°)6.9 mphClear
9:35 AM32.0 °F26.6 °F80 %29.79 in10.0 miSSW (200°)8.1 mphClear
9:55 AM33.8 °F28.4 °F81 %29.78 in10.0 miSSW (210°)8.1 mphClear
10:15 AM35.6 °F28.4 °F75 %29.77 in10.0 miSSW (200°)6.9 mphClear
10:35 AM37.4 °F28.4 °F70 %29.77 in10.0 miSW (220°)9.2 mphClear
10:55 AM37.4 °F30.2 °F75 %29.76 in10.0 miSSW (210°)8.1 mphClear
11:15 AM39.2 °F30.2 °F70 %29.76 in10.0 miSW (220°)8.1 mphClear
11:35 AM41.0 °F30.2 °F65 %29.75 in10.0 miWSW (240°)8.1 mphClear
11:55 AM42.8 °F30.2 °F61 %29.75 in10.0 miSW (230°)11.5 mphClear
12:15 PM44.6 °F30.2 °F57 %29.74 in10.0 miSW (230°)6.9 mphClear
12:35 PM44.6 °F28.4 °F53 %29.73 in10.0 miWSW (240°)6.9 mphClear
12:55 PM44.6 °F30.2 °F57 %29.72 in10.0 miWSW (240°)9.2 mphClear
1:15 PM44.6 °F30.2 °F57 %29.71 in10.0 miWSW (240°)8.1 mphClear
1:35 PM46.4 °F30.2 °F53 %29.70 in10.0 miWSW (240°)9.2 mph17.3 mphClear
1:55 PM48.2 °F30.2 °F50 %29.69 in10.0 miWSW (240°)8.1 mphClear
2:15 PM48.2 °F28.4 °F46 %29.68 in10.0 miWest (270°)11.5 mph18.4 mphScattered Clouds
2:35 PM48.2 °F28.4 °F46 %29.67 in10.0 miWest (260°)12.7 mph17.3 mphClear
2:55 PM46.4 °F30.2 °F53 %29.67 in10.0 miWSW (250°)11.5 mphClear
3:15 PM46.4 °F30.2 °F53 %29.66 in10.0 miWSW (240°)9.2 mphClear
3:35 PM46.4 °F30.2 °F53 %29.66 in10.0 miWSW (240°)9.2 mphScattered Clouds
3:55 PM46.4 °F32.0 °F57 %29.66 in10.0 miWSW (250°)8.1 mphOvercast
4:15 PM46.4 °F30.2 °F53 %29.66 in10.0 miWSW (250°)8.1 mphOvercast
4:35 PM46.4 °F30.2 °F53 %29.66 in10.0 miWSW (250°)8.1 mphOvercast
4:55 PM44.6 °F30.2 °F57 %29.66 in10.0 miWest (260°)6.9 mphOvercast
5:15 PM44.6 °F30.2 °F57 %29.66 in10.0 miWest (280°)10.4 mphOvercast
5:35 PM44.6 °F30.2 °F57 %29.66 in10.0 miWest (270°)6.9 mphOvercast
5:55 PM42.8 °F30.2 °F61 %29.66 in10.0 miWest (260°)5.8 mphOvercast
6:15 PM41.0 °F30.2 °F65 %29.67 in10.0 miWSW (250°)4.6 mphScattered Clouds
6:35 PM39.2 °F28.4 °F65 %29.67 in10.0 miSW (230°)4.6 mphClear
6:55 PM37.4 °F28.4 °F70 %29.67 in10.0 miWest (260°)3.5 mphClear
7:15 PM37.4 °F30.2 °F75 %29.67 in10.0 miWest (260°)3.5 mphScattered Clouds
7:35 PM37.4 °F28.4 °F70 %29.68 in10.0 miWest (280°)5.8 mphScattered Clouds
7:55 PM37.4 °F30.2 °F75 %29.68 in10.0 miWNW (290°)9.2 mphClear
8:15 PM37.4 °F30.2 °F75 %29.68 in10.0 miWNW (290°)6.9 mphClear
8:35 PM37.4 °F30.2 °F75 %29.68 in10.0 miWNW (300°)5.8 mphClear
8:55 PM37.4 °F30.2 °F75 %29.69 in10.0 miWNW (300°)6.9 mphClear
9:15 PM35.6 °F30.2 °F81 %29.69 in10.0 miWNW (300°)5.8 mphClear
9:35 PM35.6 °F30.2 °F81 %29.70 in10.0 miNW (310°)4.6 mphClear
9:55 PM35.6 °F30.2 °F81 %29.71 in10.0 miNW (320°)6.9 mphClear
10:15 PM35.6 °F30.2 °F81 %29.72 in10.0 miNW (320°)11.5 mphClear
10:35 PM35.6 °F30.2 °F81 %29.71 in10.0 miNW (320°)9.2 mphClear
10:55 PM35.6 °F30.2 °F81 %29.72 in10.0 miNW (310°)8.1 mphClear
11:15 PM35.6 °F28.4 °F75 %29.72 in10.0 miNW (310°)8.1 mphClear
11:35 PM35.6 °F30.2 °F81 %29.73 in10.0 miNW (310°)9.2 mphClear
11:55 PM35.6 °F30.2 °F81 %29.73 in10.0 miNW (320°)10.4 mph16.1 mphClear
Hourly data recorded from KLRJ, located miles away from Elk Point, South Dakota







STORIES FROM OUR PARTNERS